Regional Weather Roundup
Issued by NWS

Home | Current Version | Previous Version | Text Only | Print | Product List | Glossary On
Versions: 1 2 3 4 5 6 7 8 9 10 11 12 13 14 15 16 17 18 19 20 21 22 23 24 25 26 27 28 29 30 31 32 33 34 35 36 37 38 39 40 41 42 43 44 45 46 47 48 49 50
000
ASPQ40 PGUM 291412
RWRPQ
WEATHER ROUNDUP FOR THE MARIANAS AND MICRONESIA
NATIONAL WEATHER SERVICE TIYAN GU
1200 AM CHST SAT AUG 30 2014

GUZ001>004-291500-
MARIANA ISLANDS-

CITY           SKY/WX    TMP DP  RH WIND       PRES   REMARKS
GUAM AIRPORT   PTCLDY    81  77  89 NE6       29.82S
ANDERSEN AFB   MOCLDY    81  77  89 E7        29.82F
ROTA AIRPORT   NOT AVBL
TINIAN AP      NOT AVBL
SAIPAN AP      MOCLDY    81  77  89 E5        29.83F

$$

PMZ161-291500-
REPUBLIC OF PALAU-

CITY           SKY/WX    TMP DP  RH WIND       PRES   REMARKS
KOROR AP       MOCLDY    82  79  89 CALM      29.86S HX  93
KOROR WSO      MOCLDY    82  77  83 NW6       29.85S HX  91

$$

PMZ171>174-291500-
FEDERATED STATES OF MICRONESIA-

CITY           SKY/WX    TMP DP  RH WIND       PRES   REMARKS
YAP AIRPORT    PTCLDY    82  75  78 VRB6      29.81S
CHUUK AP       CLOUDY    77  75  94 VRB5      29.75F
POHNPEI AP     NOT AVBL
POHNPEI WSO    CLOUDY    77  75  94 SE3       29.80F
KOSRAE AP      NOT AVBL

$$

PMZ181-291500-
REPUBLIC OF THE MARSHALL ISLANDS-

CITY           SKY/WX    TMP DP  RH WIND       PRES   REMARKS
KWAJALEIN AP   NOT AVBL
MAJURO AP      NOT AVBL
MAJURO WSO     MOCLDY    82  75  78 E6        29.77F

$$



USA.gov is the U.S. government's official web portal to all federal, state and local government web resources and services.